Regional Weather Roundup
Issued by NWS

Home | Current Version | Previous Version | Graphics & Text | Print | Product List | Glossary On
Versions: 1 2 3 4 5 6 7 8 9 10 11 12 13 14 15 16 17 18 19 20 21 22 23 24 25 26 27
000
ASUS45 KBOU 211107
RWRCO

WEATHER ROUNDUP FOR COLORADO
NATIONAL WEATHER SERVICE DENVER/BOULDER CO
400 AM MST TUE FEB 21 2017

NOTE: "FAIR" INDICATES FEW OR NO CLOUDS BELOW 12000 FEET WITH NO
SIGNIFICANT WEATHER AND/OR OBSTRUCTIONS TO VISIBILITY.

COZ001>005-013-030-031-211200-
...NORTHWEST COLORADO...

CITY           SKY/WX    TMP DP  RH WIND       PRES   REMARKS
CRAIG          CLOUDY    42  31  64 W7        30.19R
HAYDEN         CLOUDY    37  27  65 SE5       30.20R
MEEKER         CLOUDY    43  32  65 E3        30.22S
MOUNT WERNER   NOT AVBL
STEAMBOAT SPGS CLOUDY    36  27  70 CALM      30.20S
WALDEN         NOT AVBL
$$

COZ006>008-011-211200-
...WEST CENTRAL VALLEYS...

CITY           SKY/WX    TMP DP  RH WIND       PRES   REMARKS
GRAND JUNCTION MOCLDY    43  36  76 E8        30.25S
MONTROSE       CLOUDY    43  33  68 S3        30.32R
EAGLE          CLOUDY    33  26  75 CALM      30.29S
RIFLE          CLOUDY    39  34  82 N5        30.26R
DELTA          CLOUDY    46  36  68 E5        30.30S
NUCLA          MOCLDY    45  32  61 E3        30.35S
$$

COZ017>023-064>068-211200-
...SOUTHWEST COLORADO...

CITY           SKY/WX    TMP DP  RH WIND       PRES   REMARKS
DURANGO        CLOUDY    34  29  82 CALM      30.37S
CORTEZ         CLOUDY    40  37  89 CALM      30.36S
PAGOSA SPRINGS CLOUDY    31  28  90 CALM      30.39F
TELLURIDE      FAIR      33  25  71 CALM      30.39R
WOLF CREEK PAS SNOW      21  21 100 SW14      30.46F VSB<1/4 WCI   8
$$

COZ009-010-012-014-032>034-037-058>063-211200-
...CENTRAL COLORADO...

CITY           SKY/WX    TMP DP  RH WIND       PRES   REMARKS
ASPEN          MOCLDY    28  21  75 S6        30.29R WCI  22
BUENA VISTA    FAIR      40  24  53 NW8G28    30.28R
COPPER MTN     MOCLDY    28  21  74 W17G24    30.34F HAZE    WCI  16
BERTHOUD PASS  FAIR      21  10  63 W26G44    30.30R WCI   4
COTTONWOOD PAS FAIR      36  25  64 W14G25    30.29S
GUNNISON       CLOUDY    25  20  81 N5        30.38S WCI  19
KREMMLING      CLOUDY    43  28  56 E3        30.24F
LEADVILLE      FAIR      27  18  69 NE9       30.29S WCI  18
MONARCH PASS   FOG       21  19  93 W22       30.48S VSB 1/4 WCI   5
SALIDA         FAIR      42  26  53 W6        30.35R
SUNLIGHT       NOT AVBL
WILKERSON PASS FAIR      28  18  64 W8        30.36S WCI  20
$$

COZ069>075-211200-
...SAN LUIS VALLEY/SANGRE DE CRISTO MOUNTAINS...

CITY           SKY/WX    TMP DP  RH WIND       PRES   REMARKS
ALAMOSA        FAIR      25  22  88 CALM      30.33R
LA VETA PASS   FAIR      28  19  69 NE33G51   30.27F WCI  12
SAGUACHE       FAIR      32  19  59 NW7       30.33S WCI  26
$$

COZ035-036-038>040-211200-
...NORTHERN COLORADO FRONT RANGE...

CITY           SKY/WX    TMP DP  RH WIND       PRES   REMARKS
DENVER INTL AP FAIR      48  16  27 NW14      30.03R
DMNS CITY PARK   N/A     59  17  19 SW10G25   30.01R
AURORA         PTCLDY    48  16  27 E6        30.04R
FRONT RANGE AP FAIR      50  16  25 S3        30.04R
ERIE MUNI ARPT FAIR      56  21  26 N10G26    30.01R
BOULDER MUN AP FAIR      55  25  30 W43G52    29.97R
CENTENNIAL     FAIR      53  15  22 NE5       30.04R
BROOMFIELD     FAIR      57  21  24 W43G55    29.97S
FORT COLLINS   FAIR      55  23  28 CALM      30.01R
LONGMONT       FAIR      58  24  26 W29G49    29.97F
$$

COZ041-046-047-076>085-087-088-211200-
...PIKES PEAK/PALMER DIVIDE AND SOUTHERN FOOTHILLS...

CITY           SKY/WX    TMP DP  RH WIND       PRES   REMARKS
COLO. SPRINGS  FAIR      44   9  23 SE7       30.07S
A. F. ACADEMY  FAIR      51  19  27 W24G38    30.04R
SCHRIEVER AFB  FAIR      42   9  25 N10G17    30.07F
ELLICOTT       FAIR     N/A N/A N/A NE8       30.06F
FALCON         FAIR      48  16  28 NW10      30.10S
FORT CARSON    FAIR      36   9  31 NW7       30.05S
LIMON          FAIR      21  12  68 N7        30.04R WCI  12
MONUMENT HILL  FAIR      39  18  41 W15       30.10S
TRINIDAD       FAIR      37  12  35 W13       30.12R
$$

COZ042>045-048>051-090-091-211200-
...NORTHEAST COLORADO...

CITY           SKY/WX    TMP DP  RH WIND       PRES   REMARKS
GREELEY ARPT   FAIR      29  19  66 NE6       30.01R WCI  23
AKRON          FAIR      43  12  28 W17       29.98R
BURLINGTON     FAIR      38  14  37 SW10      30.00S
WRAY           NOT AVBL
STERLING       FAIR      27  19  74 SW5       29.98R WCI  21
HOLYOKE        FAIR      37  18  44 W3        29.97R
FORT MORGAN    FAIR      35  15  44 W10       30.00R WCI  27
$$

COZ086-089-092>099-211200-
...SOUTHEAST COLORADO...

CITY           SKY/WX    TMP DP  RH WIND       PRES   REMARKS
PUEBLO         FAIR      33  16  49 CALM      30.04F
LA JUNTA       FAIR      36  17  46 NW12      30.04R
LAMAR          FAIR      26  14  60 W8        30.02R WCI  18
SPRINGFIELD      N/A     34  14  43 SW15      30.05R WCI  24
$$




USA.gov is the U.S. government's official web portal to all federal, state and local government web resources and services.